Time,TemperatureF,DewpointF,PressureIn,WindDirection,WindDirectionDegrees,WindSpeedMPH,WindSpeedGustMPH,Humidity,HourlyPrecipIn,Conditions,Clouds,dailyrainin,SoftwareType,DateUTC
2013-01-25 00:02:00,40.0,20.0,30.30,SE,133,5.0,-999.0,44,-99.99,,,0.00,,2013-01-25 06:02:00,
2013-01-25 00:11:00,40.0,20.0,30.30,SE,133,5.0,-999.0,44,-99.99,,,0.00,,2013-01-25 06:11:00,
2013-01-25 00:21:00,40.0,19.0,30.29,ESE,122,7.0,-999.0,43,-99.99,,,0.00,,2013-01-25 06:21:00,
2013-01-25 00:32:00,40.0,18.0,30.29,SE,141,6.0,-999.0,41,-99.99,,,0.00,,2013-01-25 06:32:00,
2013-01-25 00:42:00,40.0,18.0,30.29,SE,141,6.0,-999.0,41,-99.99,,,0.00,,2013-01-25 06:42:00,
2013-01-25 00:52:00,40.0,18.0,30.29,SE,146,8.0,-999.0,41,-99.99,,,0.00,,2013-01-25 06:52:00,
2013-01-25 01:02:00,40.0,18.0,30.29,SSE,166,7.0,-999.0,41,-99.99,,,0.00,,2013-01-25 07:02:00,
2013-01-25 01:11:00,40.0,18.0,30.29,SSE,166,7.0,-999.0,41,-99.99,,,0.00,,2013-01-25 07:11:00,
2013-01-25 01:21:00,41.0,19.0,30.29,SE,135,9.0,-999.0,40,-99.99,,,0.00,,2013-01-25 07:21:00,
2013-01-25 01:32:00,40.0,20.0,30.28,South,185,7.0,-999.0,45,-99.99,,,0.00,,2013-01-25 07:32:00,
2013-01-25 01:42:00,40.0,20.0,30.28,South,185,7.0,-999.0,45,-99.99,,,0.00,,2013-01-25 07:42:00,
2013-01-25 01:52:00,40.0,21.0,30.27,SE,141,7.0,-999.0,47,-99.99,,,0.00,,2013-01-25 07:52:00,
2013-01-25 02:01:00,40.0,21.0,30.27,SE,137,5.0,-999.0,47,-99.99,,,0.00,,2013-01-25 08:01:00,
2013-01-25 02:11:00,40.0,22.0,30.27,SE,145,5.0,-999.0,49,-99.99,,,0.00,,2013-01-25 08:11:00,
2013-01-25 02:21:00,40.0,22.0,30.27,SE,145,5.0,-999.0,49,-99.99,,,0.00,,2013-01-25 08:21:00,
2013-01-25 02:32:00,41.0,22.0,30.26,South,171,7.0,-999.0,46,-99.99,,,0.00,,2013-01-25 08:32:00,
2013-01-25 02:41:00,41.0,22.0,30.26,South,171,7.0,-999.0,46,-99.99,,,0.00,,2013-01-25 08:41:00,
2013-01-25 02:52:00,41.0,21.0,30.25,SE,145,8.0,-999.0,44,-99.99,,,0.00,,2013-01-25 08:52:00,
2013-01-25 03:01:00,41.0,21.0,30.25,SSE,154,8.0,-999.0,44,-99.99,,,0.00,,2013-01-25 09:01:00,
2013-01-25 03:11:00,41.0,21.0,30.25,SSE,154,8.0,-999.0,44,-99.99,,,0.00,,2013-01-25 09:11:00,
2013-01-25 03:21:00,41.0,21.0,30.24,SE,135,7.0,-999.0,44,-99.99,,,0.00,,2013-01-25 09:21:00,
2013-01-25 03:31:00,42.0,20.0,30.24,SE,140,10.0,-999.0,41,-99.99,,,0.00,,2013-01-25 09:31:00,
2013-01-25 03:41:00,42.0,20.0,30.24,SE,140,10.0,-999.0,41,-99.99,,,0.00,,2013-01-25 09:41:00,
2013-01-25 03:52:00,42.0,19.0,30.23,SSE,155,12.0,-999.0,39,-99.99,,,0.00,,2013-01-25 09:52:00,
2013-01-25 04:01:00,42.0,19.0,30.23,SSE,148,12.0,-999.0,39,-99.99,,,0.00,,2013-01-25 10:01:00,
2013-01-25 04:12:00,42.0,19.0,30.23,SSE,148,12.0,-999.0,39,-99.99,,,0.00,,2013-01-25 10:12:00,
2013-01-25 04:21:00,42.0,19.0,30.22,SSE,149,10.0,-999.0,40,-99.99,,,0.00,,2013-01-25 10:21:00,
2013-01-25 04:32:00,42.0,19.0,30.22,SSE,157,9.0,-999.0,40,-99.99,,,0.00,,2013-01-25 10:32:00,
2013-01-25 04:42:00,42.0,19.0,30.22,SSE,157,9.0,-999.0,40,-99.99,,,0.00,,2013-01-25 10:42:00,
2013-01-25 04:51:00,43.0,21.0,30.22,SSE,155,10.0,-999.0,41,-99.99,,,0.00,,2013-01-25 10:51:00,
2013-01-25 05:02:00,43.0,22.0,30.22,SE,137,8.0,-999.0,42,-99.99,,,0.00,,2013-01-25 11:02:00,
2013-01-25 05:11:00,43.0,22.0,30.22,SE,137,8.0,-999.0,42,-99.99,,,0.00,,2013-01-25 11:11:00,
2013-01-25 05:22:00,42.0,23.0,30.21,SSE,148,8.0,-999.0,47,-99.99,,,0.00,,2013-01-25 11:22:00,
2013-01-25 05:32:00,43.0,23.0,30.21,SE,146,6.0,-999.0,45,-99.99,,,0.00,,2013-01-25 11:32:00,
2013-01-25 05:42:00,43.0,23.0,30.21,SE,146,6.0,-999.0,45,-99.99,,,0.00,,2013-01-25 11:42:00,
2013-01-25 05:52:00,43.0,23.0,30.21,SE,143,7.0,-999.0,44,-99.99,,,0.00,,2013-01-25 11:52:00,
2013-01-25 06:02:00,44.0,23.0,30.21,SE,142,7.0,-999.0,44,-99.99,,,0.00,,2013-01-25 12:02:00,
2013-01-25 06:11:00,44.0,23.0,30.21,SE,142,7.0,-999.0,44,-99.99,,,0.00,,2013-01-25 12:11:00,
2013-01-25 06:22:00,44.0,24.0,30.21,SSE,164,6.0,-999.0,45,-99.99,,,0.00,,2013-01-25 12:22:00,
2013-01-25 06:32:00,44.0,24.0,30.21,SSE,152,5.0,-999.0,45,-99.99,,,0.00,,2013-01-25 12:32:00,
2013-01-25 06:42:00,44.0,24.0,30.21,SSE,152,5.0,-999.0,45,-99.99,,,0.00,,2013-01-25 12:42:00,
2013-01-25 06:53:00,44.0,25.0,30.21,SSE,149,7.0,-999.0,46,-99.99,,,0.00,,2013-01-25 12:53:00,
2013-01-25 07:02:00,44.0,25.0,30.21,SE,141,7.0,-999.0,46,-99.99,,,0.00,,2013-01-25 13:02:00,
2013-01-25 07:11:00,44.0,25.0,30.21,SE,141,7.0,-999.0,46,-99.99,,,0.00,,2013-01-25 13:11:00,
2013-01-25 07:22:00,44.0,26.0,30.21,SSE,156,7.0,-999.0,48,-99.99,,,0.00,,2013-01-25 13:22:00,
2013-01-25 07:32:00,44.0,26.0,30.20,SE,136,6.0,-999.0,49,-99.99,,,0.00,,2013-01-25 13:32:00,
2013-01-25 07:42:00,44.0,26.0,30.20,SE,136,6.0,-999.0,49,-99.99,,,0.00,,2013-01-25 13:42:00,
2013-01-25 07:53:00,44.0,26.0,30.19,SSE,154,7.0,-999.0,49,-99.99,,,0.00,,2013-01-25 13:53:00,
2013-01-25 08:02:00,45.0,28.0,30.19,SSE,166,7.0,-999.0,51,-99.99,,,0.00,,2013-01-25 14:02:00,
2013-01-25 08:12:00,45.0,28.0,30.19,SSE,166,7.0,-999.0,51,-99.99,,,0.00,,2013-01-25 14:12:00,
2013-01-25 08:22:00,45.0,27.0,30.18,SSE,154,9.0,-999.0,50,-99.99,,,0.00,,2013-01-25 14:22:00,
2013-01-25 08:32:00,45.0,27.0,30.18,SSE,154,9.0,-999.0,50,-99.99,,,0.00,,2013-01-25 14:32:00,
2013-01-25 08:42:00,45.0,27.0,30.18,SSE,154,9.0,-999.0,50,-99.99,,,0.00,,2013-01-25 14:42:00,
2013-01-25 08:52:00,46.0,30.0,30.17,SSE,163,6.0,-999.0,53,-99.99,,,0.00,,2013-01-25 14:52:00,
2013-01-25 09:02:00,46.0,30.0,30.17,SSE,157,6.0,-999.0,54,-99.99,,,0.00,,2013-01-25 15:02:00,
2013-01-25 09:12:00,46.0,30.0,30.17,SSE,157,6.0,-999.0,54,-99.99,,,0.00,,2013-01-25 15:12:00,
2013-01-25 09:22:00,47.0,33.0,30.17,SSE,160,6.0,-999.0,58,-99.99,,,0.00,,2013-01-25 15:22:00,
2013-01-25 09:32:00,47.0,34.0,30.17,SSE,149,6.0,-999.0,61,-99.99,,,0.00,,2013-01-25 15:32:00,
2013-01-25 09:43:00,47.0,34.0,30.17,SSE,149,6.0,-999.0,61,-99.99,,,0.00,,2013-01-25 15:43:00,
2013-01-25 09:53:00,47.0,34.0,30.17,South,172,2.0,-999.0,61,-99.99,,,0.00,,2013-01-25 15:53:00,
2013-01-25 10:03:00,49.0,38.0,30.16,SE,137,5.0,-999.0,65,-99.99,,,0.00,,2013-01-25 16:03:00,
2013-01-25 10:12:00,49.0,38.0,30.16,SE,137,5.0,-999.0,65,-99.99,,,0.00,,2013-01-25 16:12:00,
2013-01-25 10:22:00,50.0,39.0,30.15,SSE,153,7.0,-999.0,65,-99.99,,,0.00,,2013-01-25 16:22:00,
2013-01-25 10:32:00,50.0,38.0,30.14,South,172,7.0,-999.0,63,-99.99,,,0.00,,2013-01-25 16:32:00,
2013-01-25 10:42:00,50.0,38.0,30.14,South,172,7.0,-999.0,63,-99.99,,,0.00,,2013-01-25 16:42:00,
2013-01-25 10:53:00,51.0,40.0,30.17,NW,315,5.0,-999.0,65,-99.99,,,0.00,,2013-01-25 16:53:00,
2013-01-25 11:02:00,48.0,42.0,30.19,WNW,299,8.0,-999.0,79,-99.99,,,0.06,,2013-01-25 17:02:00,
2013-01-25 11:12:00,48.0,42.0,30.19,WNW,299,8.0,-999.0,79,-99.99,,,0.06,,2013-01-25 17:12:00,
2013-01-25 11:22:00,47.0,42.0,30.18,South,185,4.0,-999.0,83,-99.99,,,0.07,,2013-01-25 17:22:00,
2013-01-25 11:32:00,47.0,44.0,30.19,SSE,149,2.0,-999.0,88,-99.99,,,0.08,,2013-01-25 17:32:00,
2013-01-25 11:42:00,47.0,44.0,30.19,SSE,149,2.0,-999.0,88,-99.99,,,0.08,,2013-01-25 17:42:00,
2013-01-25 11:52:00,46.0,44.0,30.16,SE,129,4.0,-999.0,91,-99.99,,,0.10,,2013-01-25 17:52:00,
2013-01-25 12:03:00,45.0,43.0,30.16,SE,129,4.0,-999.0,92,-99.99,,,0.10,,2013-01-25 18:03:00,
2013-01-25 12:12:00,45.0,43.0,30.16,SE,129,4.0,-999.0,92,-99.99,,,0.10,,2013-01-25 18:12:00,
2013-01-25 12:23:00,45.0,43.0,30.15,ESE,122,2.0,-999.0,92,-99.99,,,0.11,,2013-01-25 18:23:00,
2013-01-25 12:32:00,45.0,43.0,30.13,SSE,156,3.0,-999.0,93,-99.99,,,0.11,,2013-01-25 18:32:00,
2013-01-25 12:42:00,45.0,43.0,30.13,SSE,156,3.0,-999.0,93,-99.99,,,0.11,,2013-01-25 18:42:00,
2013-01-25 12:52:00,46.0,44.0,30.12,SE,139,3.0,-999.0,94,-99.99,,,0.11,,2013-01-25 18:52:00,
2013-01-25 13:02:00,46.0,44.0,30.13,SE,127,3.0,-999.0,94,-99.99,,,0.11,,2013-01-25 19:02:00,
2013-01-25 13:12:00,46.0,44.0,30.13,SE,127,3.0,-999.0,94,-99.99,,,0.11,,2013-01-25 19:12:00,
2013-01-25 13:22:00,46.0,44.0,30.12,SE,124,2.0,-999.0,94,-99.99,,,0.11,,2013-01-25 19:22:00,
2013-01-25 13:32:00,46.0,44.0,30.12,SE,124,2.0,-999.0,94,-99.99,,,0.11,,2013-01-25 19:32:00,
2013-01-25 13:42:00,46.0,44.0,30.12,SE,124,2.0,-999.0,94,-99.99,,,0.11,,2013-01-25 19:42:00,
2013-01-25 13:52:00,47.0,45.0,30.12,SE,124,0.0,-999.0,94,-99.99,,,0.13,,2013-01-25 19:52:00,
2013-01-25 14:02:00,47.0,46.0,30.12,SE,124,1.0,-999.0,95,-99.99,,,0.13,,2013-01-25 20:02:00,
2013-01-25 14:12:00,47.0,46.0,30.12,SE,124,1.0,-999.0,95,-99.99,,,0.13,,2013-01-25 20:12:00,
2013-01-25 14:22:00,47.0,46.0,30.12,ESE,114,1.0,-999.0,95,-99.99,,,0.13,,2013-01-25 20:22:00,
2013-01-25 14:32:00,47.0,46.0,30.11,ESE,109,1.0,-999.0,95,-99.99,,,0.13,,2013-01-25 20:32:00,
2013-01-25 14:42:00,47.0,46.0,30.11,ESE,109,1.0,-999.0,95,-99.99,,,0.13,,2013-01-25 20:42:00,
2013-01-25 14:52:00,48.0,47.0,30.12,NE,43,1.0,-999.0,95,-99.99,,,0.13,,2013-01-25 20:52:00,
2013-01-25 15:02:00,48.0,47.0,30.12,North,354,3.0,-999.0,95,-99.99,,,0.13,,2013-01-25 21:02:00,
2013-01-25 15:12:00,48.0,47.0,30.12,North,354,3.0,-999.0,95,-99.99,,,0.13,,2013-01-25 21:12:00,
2013-01-25 15:22:00,48.0,47.0,30.12,NNW,340,4.0,-999.0,95,-99.99,,,0.13,,2013-01-25 21:22:00,
2013-01-25 15:32:00,47.0,46.0,30.12,NNW,346,4.0,-999.0,95,-99.99,,,0.13,,2013-01-25 21:32:00,
2013-01-25 15:42:00,47.0,46.0,30.12,NNW,346,4.0,-999.0,95,-99.99,,,0.13,,2013-01-25 21:42:00,
2013-01-25 15:52:00,47.0,45.0,30.13,NNW,347,3.0,-999.0,94,-99.99,,,0.13,,2013-01-25 21:52:00,
2013-01-25 16:02:00,47.0,45.0,30.13,North,359,3.0,-999.0,94,-99.99,,,0.14,,2013-01-25 22:02:00,
2013-01-25 16:11:00,47.0,45.0,30.13,North,359,3.0,-999.0,94,-99.99,,,0.14,,2013-01-25 22:11:00,
2013-01-25 16:22:00,47.0,46.0,30.13,North,359,1.0,-999.0,95,-99.99,,,0.14,,2013-01-25 22:22:00,
2013-01-25 16:32:00,47.0,46.0,30.14,North,359,0.0,-999.0,95,-99.99,,,0.14,,2013-01-25 22:32:00,
2013-01-25 16:42:00,47.0,46.0,30.14,North,359,0.0,-999.0,95,-99.99,,,0.14,,2013-01-25 22:42:00,
2013-01-25 16:52:00,47.0,46.0,30.13,ENE,61,1.0,-999.0,95,-99.99,,,0.14,,2013-01-25 22:52:00,
2013-01-25 17:02:00,47.0,46.0,30.14,ENE,61,1.0,-999.0,95,-99.99,,,0.14,,2013-01-25 23:02:00,
2013-01-25 17:11:00,47.0,46.0,30.14,ENE,61,1.0,-999.0,95,-99.99,,,0.14,,2013-01-25 23:11:00,
2013-01-25 17:22:00,47.0,46.0,30.14,ENE,61,0.0,-999.0,96,-99.99,,,0.15,,2013-01-25 23:22:00,
2013-01-25 17:32:00,47.0,46.0,30.14,ENE,61,0.0,-999.0,96,-99.99,,,0.15,,2013-01-25 23:32:00,
2013-01-25 17:42:00,47.0,46.0,30.14,ENE,61,0.0,-999.0,96,-99.99,,,0.15,,2013-01-25 23:42:00,
2013-01-25 17:53:00,47.0,46.0,30.14,ENE,61,0.0,-999.0,96,-99.99,,,0.15,,2013-01-25 23:53:00,
2013-01-25 18:02:00,47.0,46.0,30.15,ENE,61,0.0,-999.0,96,-99.99,,,0.15,,2013-01-26 00:02:00,
2013-01-25 18:11:00,47.0,46.0,30.15,ENE,61,0.0,-999.0,96,-99.99,,,0.15,,2013-01-26 00:11:00,
2013-01-25 18:22:00,47.0,46.0,30.16,West,270,0.0,-999.0,97,-99.99,,,0.00,,2013-01-26 00:22:00,
2013-01-25 18:32:00,47.0,46.0,30.16,WNW,294,2.0,-999.0,97,-99.99,,,0.00,,2013-01-26 00:32:00,
2013-01-25 18:42:00,47.0,46.0,30.16,WNW,294,2.0,-999.0,97,-99.99,,,0.00,,2013-01-26 00:42:00,
2013-01-25 18:53:00,47.0,46.0,30.16,NW,305,2.0,-999.0,97,-99.99,,,0.00,,2013-01-26 00:53:00,
2013-01-25 19:01:00,47.0,46.0,30.17,NW,313,4.0,-999.0,97,-99.99,,,0.00,,2013-01-26 01:01:00,
2013-01-25 19:11:00,47.0,46.0,30.17,NW,313,4.0,-999.0,97,-99.99,,,0.00,,2013-01-26 01:11:00,
2013-01-25 19:22:00,47.0,46.0,30.17,North,359,3.0,-999.0,97,-99.99,,,0.00,,2013-01-26 01:22:00,
2013-01-25 19:32:00,47.0,46.0,30.17,North,359,3.0,-999.0,97,-99.99,,,0.00,,2013-01-26 01:32:00,
2013-01-25 19:42:00,47.0,46.0,30.17,North,359,3.0,-999.0,97,-99.99,,,0.00,,2013-01-26 01:42:00,
2013-01-25 19:52:00,46.0,45.0,30.18,NE,55,4.0,-999.0,95,-99.99,,,0.00,,2013-01-26 01:52:00,
2013-01-25 20:01:00,45.0,44.0,30.18,NNE,21,4.0,-999.0,95,-99.99,,,0.00,,2013-01-26 02:01:00,
2013-01-25 20:11:00,45.0,44.0,30.18,NNE,21,4.0,-999.0,95,-99.99,,,0.00,,2013-01-26 02:11:00,
2013-01-25 20:22:00,45.0,44.0,30.19,NW,319,5.0,-999.0,95,-99.99,,,0.00,,2013-01-26 02:22:00,
2013-01-25 20:32:00,45.0,43.0,30.19,NNW,330,4.0,-999.0,94,-99.99,,,0.00,,2013-01-26 02:32:00,
2013-01-25 20:42:00,45.0,43.0,30.19,NNW,330,4.0,-999.0,94,-99.99,,,0.00,,2013-01-26 02:42:00,
2013-01-25 20:52:00,45.0,44.0,30.19,NNW,330,5.0,-999.0,95,-99.99,,,0.00,,2013-01-26 02:52:00,
2013-01-25 21:02:00,45.0,44.0,30.20,NW,325,4.0,-999.0,95,-99.99,,,0.00,,2013-01-26 03:02:00,
2013-01-25 21:11:00,45.0,44.0,30.20,NW,325,4.0,-999.0,95,-99.99,,,0.00,,2013-01-26 03:11:00,
2013-01-25 21:21:00,44.0,42.0,30.20,NNW,337,5.0,-999.0,94,-99.99,,,0.00,,2013-01-26 03:21:00,
2013-01-25 21:31:00,44.0,42.0,30.20,NW,322,5.0,-999.0,94,-99.99,,,0.00,,2013-01-26 03:31:00,
2013-01-25 21:42:00,44.0,42.0,30.20,NW,322,5.0,-999.0,94,-99.99,,,0.00,,2013-01-26 03:42:00,
2013-01-25 21:52:00,44.0,42.0,30.20,NW,322,5.0,-999.0,94,-99.99,,,0.00,,2013-01-26 03:52:00,
2013-01-25 22:01:00,44.0,42.0,30.20,NW,322,5.0,-999.0,94,-99.99,,,0.00,,2013-01-26 04:01:00,
2013-01-25 22:12:00,44.0,42.0,30.20,NW,322,5.0,-999.0,94,-99.99,,,0.00,,2013-01-26 04:12:00,
2013-01-25 22:32:00,42.0,40.0,30.22,NNE,22,4.0,-999.0,93,-99.99,,,0.00,,2013-01-26 04:32:00,
2013-01-25 22:42:00,42.0,40.0,30.22,NNE,22,4.0,-999.0,93,-99.99,,,0.00,,2013-01-26 04:42:00,
2013-01-25 22:52:00,42.0,40.0,30.22,North,8,3.0,-999.0,93,-99.99,,,0.00,,2013-01-26 04:52:00,
2013-01-25 23:03:00,42.0,40.0,30.23,NNE,23,4.0,-999.0,94,-99.99,,,0.00,,2013-01-26 05:03:00,
2013-01-25 23:12:00,42.0,40.0,30.23,NNE,23,4.0,-999.0,94,-99.99,,,0.00,,2013-01-26 05:12:00,
2013-01-25 23:23:00,41.0,39.0,30.22,NNW,331,3.0,-999.0,94,-99.99,,,0.00,,2013-01-26 05:23:00,
2013-01-25 23:33:00,40.0,38.0,30.22,North,354,5.0,-999.0,94,-99.99,,,0.00,,2013-01-26 05:33:00,
2013-01-25 23:41:00,40.0,38.0,30.22,North,354,5.0,-999.0,94,-99.99,,,0.00,,2013-01-26 05:41:00,
2013-01-25 23:52:00,40.0,38.0,30.23,North,349,5.0,-999.0,94,-99.99,,,0.00,,2013-01-26 05:52:00,